Year,Month,Day,Hour,Minute,Value (Times are PST for temperature in C)
2010,07,25,00,00,16.00
2010,07,25,00,01,15.90
2010,07,25,00,02,15.90
2010,07,25,00,03,15.90
2010,07,25,00,04,15.90
2010,07,25,00,05,15.80
2010,07,25,00,06,15.80
2010,07,25,00,07,15.80
2010,07,25,00,08,15.80
2010,07,25,00,09,15.80
2010,07,25,00,10,15.80
2010,07,25,00,11,15.80
2010,07,25,00,12,15.80
2010,07,25,00,13,15.80
2010,07,25,00,14,15.80
2010,07,25,00,15,15.80
2010,07,25,00,16,15.70
2010,07,25,00,17,15.70
2010,07,25,00,18,15.70
2010,07,25,00,19,15.70
2010,07,25,00,20,15.70
2010,07,25,00,21,15.70
2010,07,25,00,22,15.70
2010,07,25,00,23,15.70
2010,07,25,00,24,15.70
2010,07,25,00,25,15.70
2010,07,25,00,26,15.60
2010,07,25,00,27,15.60
2010,07,25,00,28,15.60
2010,07,25,00,29,15.60
2010,07,25,00,30,15.60
2010,07,25,00,31,15.60
2010,07,25,00,32,15.60
2010,07,25,00,33,15.60
2010,07,25,00,34,15.50
2010,07,25,00,35,15.50
2010,07,25,00,36,15.50
2010,07,25,00,37,15.50
2010,07,25,00,38,15.40
2010,07,25,00,39,15.40
2010,07,25,00,40,15.40
2010,07,25,00,41,15.40
2010,07,25,00,42,15.40
2010,07,25,00,43,15.40
2010,07,25,00,44,15.40
2010,07,25,00,45,15.30
2010,07,25,00,46,15.30
2010,07,25,00,47,15.30
2010,07,25,00,48,15.30
2010,07,25,00,49,15.30
2010,07,25,00,50,15.30
2010,07,25,00,51,15.20
2010,07,25,00,52,15.20
2010,07,25,00,53,15.20
2010,07,25,00,54,15.20
2010,07,25,00,55,15.20
2010,07,25,00,56,15.10
2010,07,25,00,57,15.10
2010,07,25,00,58,15.10
2010,07,25,00,59,15.00
2010,07,25,01,00,15.00
2010,07,25,01,01,15.00
2010,07,25,01,02,15.00
2010,07,25,01,03,15.00
2010,07,25,01,04,15.00
2010,07,25,01,05,15.00
2010,07,25,01,06,15.00
2010,07,25,01,07,15.00
2010,07,25,01,08,15.00
2010,07,25,01,09,15.00
2010,07,25,01,10,15.00
2010,07,25,01,11,15.00
2010,07,25,01,12,15.00
2010,07,25,01,13,15.00
2010,07,25,01,14,14.90
2010,07,25,01,15,14.90
2010,07,25,01,16,14.90
2010,07,25,01,17,14.80
2010,07,25,01,18,14.80
2010,07,25,01,19,14.80
2010,07,25,01,20,14.80
2010,07,25,01,21,14.80
2010,07,25,01,22,14.80
2010,07,25,01,23,14.70
2010,07,25,01,24,14.70
2010,07,25,01,25,14.70
2010,07,25,01,26,14.70
2010,07,25,01,27,14.70
2010,07,25,01,28,14.60
2010,07,25,01,29,14.60
2010,07,25,01,30,14.60
2010,07,25,01,31,14.60
2010,07,25,01,32,14.60
2010,07,25,01,33,14.60
2010,07,25,01,34,14.60
2010,07,25,01,35,14.50
2010,07,25,01,36,14.50
2010,07,25,01,37,14.50
2010,07,25,01,38,14.40
2010,07,25,01,39,14.40
2010,07,25,01,40,14.40
2010,07,25,01,41,14.40
2010,07,25,01,42,14.40
2010,07,25,01,43,14.40
2010,07,25,01,44,14.40
2010,07,25,01,45,14.40
2010,07,25,01,46,14.40
2010,07,25,01,47,14.40
2010,07,25,01,48,14.40
2010,07,25,01,49,14.40
2010,07,25,01,50,14.40
2010,07,25,01,51,14.40
2010,07,25,01,52,14.40
2010,07,25,01,53,14.40
2010,07,25,01,54,14.40
2010,07,25,01,55,14.40
2010,07,25,01,56,14.40
2010,07,25,01,57,14.40
2010,07,25,01,58,14.40
2010,07,25,01,59,14.40
2010,07,25,02,00,14.40
2010,07,25,02,01,14.40
2010,07,25,02,02,14.40
2010,07,25,02,03,14.30
2010,07,25,02,04,14.30
2010,07,25,02,05,14.30
2010,07,25,02,06,14.30
2010,07,25,02,07,14.30
2010,07,25,02,08,14.30
2010,07,25,02,09,14.30
2010,07,25,02,10,14.30
2010,07,25,02,11,14.30
2010,07,25,02,12,14.30
2010,07,25,02,13,14.20
2010,07,25,02,14,14.20
2010,07,25,02,15,14.20
2010,07,25,02,16,14.20
2010,07,25,02,17,14.20
2010,07,25,02,18,14.20
2010,07,25,02,19,14.20
2010,07,25,02,20,14.20
2010,07,25,02,21,14.20
2010,07,25,02,22,14.10
2010,07,25,02,23,14.10
2010,07,25,02,24,14.10
2010,07,25,02,25,14.10
2010,07,25,02,26,14.10
2010,07,25,02,27,14.10
2010,07,25,02,28,14.00
2010,07,25,02,29,14.00
2010,07,25,02,30,14.00
2010,07,25,02,31,14.00
2010,07,25,02,32,13.90
2010,07,25,02,33,13.90
2010,07,25,02,34,13.90
2010,07,25,02,35,13.90
2010,07,25,02,36,13.90
2010,07,25,02,37,13.90
2010,07,25,02,38,13.90
2010,07,25,02,39,13.90
2010,07,25,02,40,13.90
2010,07,25,02,41,13.80
2010,07,25,02,42,13.80
2010,07,25,02,43,13.80
2010,07,25,02,44,13.80
2010,07,25,02,45,13.80
2010,07,25,02,46,13.80
2010,07,25,02,47,13.80
2010,07,25,02,48,13.70
2010,07,25,02,49,13.70
2010,07,25,02,50,13.70
2010,07,25,02,51,13.70
2010,07,25,02,52,13.70
2010,07,25,02,53,13.70
2010,07,25,02,54,13.60
2010,07,25,02,55,13.60
2010,07,25,02,56,13.60
2010,07,25,02,57,13.60
2010,07,25,02,58,13.60
2010,07,25,02,59,13.50
2010,07,25,03,00,13.50
2010,07,25,03,01,13.50
2010,07,25,03,02,13.40
2010,07,25,03,06,13.40
2010,07,25,03,07,13.40
2010,07,25,03,08,13.40
2010,07,25,03,09,13.40
2010,07,25,03,10,13.30
2010,07,25,03,11,13.30
2010,07,25,03,12,13.30
2010,07,25,03,13,13.30
2010,07,25,03,14,13.30
2010,07,25,03,15,13.30
2010,07,25,03,16,13.30
2010,07,25,03,17,13.20
2010,07,25,03,18,13.20
2010,07,25,03,19,13.20
2010,07,25,03,20,13.20
2010,07,25,03,21,13.20
2010,07,25,03,22,13.20
2010,07,25,03,23,13.20
2010,07,25,03,24,13.20
2010,07,25,03,25,13.10
2010,07,25,03,26,13.10
2010,07,25,03,27,13.10
2010,07,25,03,28,13.10
2010,07,25,03,29,13.10
2010,07,25,03,30,13.10
2010,07,25,03,31,13.00
2010,07,25,03,32,13.00
2010,07,25,03,33,13.00
2010,07,25,03,34,13.00
2010,07,25,03,35,12.90
2010,07,25,03,36,12.90
2010,07,25,03,37,12.90
2010,07,25,03,38,12.90
2010,07,25,03,39,12.90
2010,07,25,03,40,12.90
2010,07,25,03,41,12.90
2010,07,25,03,42,12.80
2010,07,25,03,43,12.80
2010,07,25,03,44,12.80
2010,07,25,03,45,12.80
2010,07,25,03,46,12.80
2010,07,25,03,47,12.80
2010,07,25,03,48,12.80
2010,07,25,03,49,12.80
2010,07,25,03,50,12.80
2010,07,25,03,51,12.80
2010,07,25,03,52,12.80
2010,07,25,03,53,12.80
2010,07,25,03,54,12.80
2010,07,25,03,55,12.80
2010,07,25,03,56,12.80
2010,07,25,03,57,12.80
2010,07,25,03,58,12.80
2010,07,25,03,59,12.80
2010,07,25,04,00,12.80
2010,07,25,04,01,12.70
2010,07,25,04,02,12.70
2010,07,25,04,03,12.70
2010,07,25,04,04,12.70
2010,07,25,04,05,12.70
2010,07,25,04,06,12.70
2010,07,25,04,07,12.70
2010,07,25,04,08,12.70
2010,07,25,04,09,12.70
2010,07,25,04,10,12.70
2010,07,25,04,11,12.70
2010,07,25,04,12,12.70
2010,07,25,04,13,12.70
2010,07,25,04,14,12.70
2010,07,25,04,15,12.70
2010,07,25,04,16,12.70
2010,07,25,04,17,12.70
2010,07,25,04,18,12.70
2010,07,25,04,19,12.70
2010,07,25,04,20,12.70
2010,07,25,04,21,12.70
2010,07,25,04,22,12.70
2010,07,25,04,23,12.70
2010,07,25,04,24,12.70
2010,07,25,04,25,12.70
2010,07,25,04,26,12.70
2010,07,25,04,27,12.60
2010,07,25,04,28,12.60
2010,07,25,04,29,12.60
2010,07,25,04,30,12.60
2010,07,25,04,31,12.60
2010,07,25,04,32,12.60
2010,07,25,04,33,12.60
2010,07,25,04,34,12.50
2010,07,25,04,35,12.50
2010,07,25,04,36,12.50
2010,07,25,04,37,12.50
2010,07,25,04,38,12.50
2010,07,25,04,39,12.40
2010,07,25,04,40,12.40
2010,07,25,04,41,12.40
2010,07,25,04,42,12.40
2010,07,25,04,43,12.40
2010,07,25,04,44,12.40
2010,07,25,04,45,12.40
2010,07,25,04,46,12.40
2010,07,25,04,47,12.40
2010,07,25,04,48,12.40
2010,07,25,04,49,12.40
2010,07,25,04,50,12.40
2010,07,25,04,51,12.40
2010,07,25,04,52,12.30
2010,07,25,04,53,12.30
2010,07,25,04,54,12.30
2010,07,25,04,55,12.30
2010,07,25,04,56,12.30
2010,07,25,04,57,12.30
2010,07,25,04,58,12.30
2010,07,25,04,59,12.30
2010,07,25,05,00,12.30
2010,07,25,05,01,12.30
2010,07,25,05,02,12.20
2010,07,25,05,03,12.20
2010,07,25,05,04,12.20
2010,07,25,05,05,12.20
2010,07,25,05,06,12.20
2010,07,25,05,07,12.20
2010,07,25,05,08,12.20
2010,07,25,05,09,12.10
2010,07,25,05,10,12.10
2010,07,25,05,11,12.10
2010,07,25,05,12,12.10
2010,07,25,05,13,12.10
2010,07,25,05,14,12.10
2010,07,25,05,15,12.10
2010,07,25,05,16,12.10
2010,07,25,05,17,12.10
2010,07,25,05,18,12.00
2010,07,25,05,19,12.00
2010,07,25,05,20,12.00
2010,07,25,05,21,12.00
2010,07,25,05,22,11.90
2010,07,25,05,23,11.90
2010,07,25,05,24,11.90
2010,07,25,05,25,11.90
2010,07,25,05,26,11.90
2010,07,25,05,27,11.90
2010,07,25,05,28,11.90
2010,07,25,05,29,11.80
2010,07,25,05,30,11.80
2010,07,25,05,31,11.80
2010,07,25,05,32,11.80
2010,07,25,05,33,11.80
2010,07,25,05,34,11.80
2010,07,25,05,35,11.80
2010,07,25,05,36,11.80
2010,07,25,05,37,11.80
2010,07,25,05,38,11.80
2010,07,25,05,39,11.80
2010,07,25,05,40,11.80
2010,07,25,05,41,11.80
2010,07,25,05,42,11.70
2010,07,25,05,43,11.70
2010,07,25,05,44,11.70
2010,07,25,05,45,11.70
2010,07,25,05,46,11.70
2010,07,25,05,47,11.70
2010,07,25,05,48,11.70
2010,07,25,05,49,11.70
2010,07,25,05,50,11.70
2010,07,25,05,51,11.70
2010,07,25,05,52,11.60
2010,07,25,05,53,11.60
2010,07,25,05,54,11.60
2010,07,25,05,55,11.60
2010,07,25,05,56,11.60
2010,07,25,05,57,11.60
2010,07,25,05,58,11.60
2010,07,25,05,59,11.60
2010,07,25,06,00,11.60
2010,07,25,06,01,11.60
2010,07,25,06,02,11.60
2010,07,25,06,03,11.60
2010,07,25,06,04,11.60
2010,07,25,06,05,11.60
2010,07,25,06,06,11.60
2010,07,25,06,07,11.60
2010,07,25,06,08,11.60
2010,07,25,06,09,11.60
2010,07,25,06,10,11.70
2010,07,25,06,11,11.70
2010,07,25,06,12,11.70
2010,07,25,06,13,11.70
2010,07,25,06,14,11.70
2010,07,25,06,15,11.70
2010,07,25,06,16,11.70
2010,07,25,06,17,11.80
2010,07,25,06,18,11.80
2010,07,25,06,19,11.80
2010,07,25,06,20,11.80
2010,07,25,06,21,11.80
2010,07,25,06,22,11.80
2010,07,25,06,23,11.80
2010,07,25,06,24,11.90
2010,07,25,06,25,11.90
2010,07,25,06,26,11.90
2010,07,25,06,27,11.90
2010,07,25,06,28,11.90
2010,07,25,06,29,11.90
2010,07,25,06,30,11.90
2010,07,25,06,31,11.90
2010,07,25,06,32,11.90
2010,07,25,06,33,11.90
2010,07,25,06,34,11.90
2010,07,25,06,35,12.00
2010,07,25,06,36,12.00
2010,07,25,06,37,12.00
2010,07,25,06,38,12.00
2010,07,25,06,39,12.10
2010,07,25,06,40,12.10
2010,07,25,06,41,12.10
2010,07,25,06,42,12.20
2010,07,25,06,43,12.20
2010,07,25,06,44,12.20
2010,07,25,06,45,12.20
2010,07,25,06,46,12.30
2010,07,25,06,47,12.30
2010,07,25,06,48,12.30
2010,07,25,06,49,12.30
2010,07,25,06,50,12.30
2010,07,25,06,51,12.40
2010,07,25,06,52,12.40
2010,07,25,06,53,12.40
2010,07,25,06,54,12.40
2010,07,25,06,55,12.50
2010,07,25,06,56,12.50
2010,07,25,06,57,12.60
2010,07,25,06,58,12.60
2010,07,25,06,59,12.60
2010,07,25,07,00,12.60
2010,07,25,07,01,12.70
2010,07,25,07,02,12.70
2010,07,25,07,03,12.70
2010,07,25,07,04,12.80
2010,07,25,07,05,12.80
2010,07,25,07,06,12.80
2010,07,25,07,07,12.80
2010,07,25,07,08,12.80
2010,07,25,07,09,12.90
2010,07,25,07,10,12.90
2010,07,25,07,11,12.90
2010,07,25,07,12,12.90
2010,07,25,07,13,12.90
2010,07,25,07,14,12.90
2010,07,25,07,15,12.90
2010,07,25,07,16,12.90
2010,07,25,07,17,12.90
2010,07,25,07,18,12.90
2010,07,25,07,19,12.90
2010,07,25,07,20,12.90
2010,07,25,07,21,12.90
2010,07,25,07,22,12.90
2010,07,25,07,23,12.90
2010,07,25,07,24,12.90
2010,07,25,07,25,12.90
2010,07,25,07,26,12.90
2010,07,25,07,27,12.90
2010,07,25,07,28,12.90
2010,07,25,07,29,12.90
2010,07,25,07,30,12.90
2010,07,25,07,31,12.90
2010,07,25,07,32,12.90
2010,07,25,07,33,13.00
2010,07,25,07,34,13.00
2010,07,25,07,35,13.00
2010,07,25,07,36,13.10
2010,07,25,07,37,13.10
2010,07,25,07,38,13.10
2010,07,25,07,39,13.10
2010,07,25,07,40,13.20
2010,07,25,07,41,13.20
2010,07,25,07,42,13.30
2010,07,25,07,43,13.30
2010,07,25,07,44,13.40
2010,07,25,07,45,13.40
2010,07,25,07,46,13.40
2010,07,25,07,47,13.50
2010,07,25,07,48,13.50
2010,07,25,07,49,13.60
2010,07,25,07,50,13.70
2010,07,25,07,51,13.70
2010,07,25,07,52,13.70
2010,07,25,07,53,13.80
2010,07,25,07,54,13.80
2010,07,25,07,55,13.90
2010,07,25,07,56,13.90
2010,07,25,07,57,13.90
2010,07,25,07,58,14.00
2010,07,25,07,59,14.10
2010,07,25,08,00,14.10
2010,07,25,08,01,14.20
2010,07,25,08,02,14.20
2010,07,25,08,03,14.30
2010,07,25,08,04,14.40
2010,07,25,08,05,14.50
2010,07,25,08,06,14.60
2010,07,25,08,07,14.80
2010,07,25,08,08,14.90
2010,07,25,08,09,15.00
2010,07,25,08,10,15.10
2010,07,25,08,11,15.20
2010,07,25,08,12,15.40
2010,07,25,08,13,15.50
2010,07,25,08,14,15.60
2010,07,25,08,15,15.80
2010,07,25,08,16,16.00
2010,07,25,08,17,16.10
2010,07,25,08,18,16.30
2010,07,25,08,19,16.40
2010,07,25,08,20,16.60
2010,07,25,08,21,16.80
2010,07,25,08,22,16.90
2010,07,25,08,23,17.10
2010,07,25,08,24,17.30
2010,07,25,08,25,17.40
2010,07,25,08,26,17.50
2010,07,25,08,27,17.60
2010,07,25,08,28,17.70
2010,07,25,08,29,17.80
2010,07,25,08,30,17.80
2010,07,25,08,31,17.90
2010,07,25,08,32,17.90
2010,07,25,08,33,18.00
2010,07,25,08,34,18.00
2010,07,25,08,35,18.10
2010,07,25,08,36,18.20
2010,07,25,08,37,18.20
2010,07,25,08,38,18.30
2010,07,25,08,39,18.40
2010,07,25,08,40,18.50
2010,07,25,08,41,18.70
2010,07,25,08,42,18.70
2010,07,25,08,43,18.80
2010,07,25,08,44,18.90
2010,07,25,08,45,19.00
2010,07,25,08,46,19.10
2010,07,25,08,47,19.20
2010,07,25,08,48,19.20
2010,07,25,08,49,19.30
2010,07,25,08,50,19.40
2010,07,25,08,51,19.50
2010,07,25,08,52,19.50
2010,07,25,08,53,19.60
2010,07,25,08,54,19.70
2010,07,25,08,55,19.80
2010,07,25,08,56,19.80
2010,07,25,08,57,19.80
2010,07,25,08,58,19.80
2010,07,25,08,59,19.80
2010,07,25,09,00,19.90
2010,07,25,09,01,19.90
2010,07,25,09,02,19.90
2010,07,25,09,03,20.00
2010,07,25,09,04,20.00
2010,07,25,09,05,20.00
2010,07,25,09,06,20.00
2010,07,25,09,07,20.00
2010,07,25,09,08,20.00
2010,07,25,09,09,20.00
2010,07,25,09,10,19.90
2010,07,25,09,11,19.90
2010,07,25,09,12,19.90
2010,07,25,09,13,20.00
2010,07,25,09,14,20.00
2010,07,25,09,15,20.10
2010,07,25,09,16,20.10
2010,07,25,09,17,20.10
2010,07,25,09,18,20.10
2010,07,25,09,19,20.20
2010,07,25,09,20,20.20
2010,07,25,09,21,20.30
2010,07,25,09,22,20.30
2010,07,25,09,23,20.40
2010,07,25,09,24,20.50
2010,07,25,09,25,20.50
2010,07,25,09,26,20.60
2010,07,25,09,27,20.60
2010,07,25,09,28,20.70
2010,07,25,09,29,20.60
2010,07,25,09,30,20.60
2010,07,25,09,31,20.60
2010,07,25,09,32,20.60
2010,07,25,09,33,20.70
2010,07,25,09,34,20.70
2010,07,25,09,35,20.80
2010,07,25,09,36,20.80
2010,07,25,09,37,20.90
2010,07,25,09,38,21.00
2010,07,25,09,39,21.10
2010,07,25,09,40,21.10
2010,07,25,09,41,21.10
2010,07,25,09,42,21.10
2010,07,25,09,43,21.10
2010,07,25,09,44,21.20
2010,07,25,09,45,21.20
2010,07,25,09,46,21.20
2010,07,25,09,47,21.30
2010,07,25,09,48,21.30
2010,07,25,09,49,21.30
2010,07,25,09,50,21.30
2010,07,25,09,51,21.40
2010,07,25,09,52,21.40
2010,07,25,09,53,21.50
2010,07,25,09,54,21.50
2010,07,25,09,55,21.40
2010,07,25,09,56,21.40
2010,07,25,09,57,21.30
2010,07,25,09,58,21.30
2010,07,25,09,59,21.30
2010,07,25,10,00,21.30
2010,07,25,10,01,21.30
2010,07,25,10,02,21.30
2010,07,25,10,03,21.40
2010,07,25,10,04,21.50
2010,07,25,10,05,21.50
2010,07,25,10,06,21.60
2010,07,25,10,07,21.60
2010,07,25,10,08,21.60
2010,07,25,10,09,21.70
2010,07,25,10,10,21.70
2010,07,25,10,11,21.80
2010,07,25,10,12,21.80
2010,07,25,10,13,21.80
2010,07,25,10,14,21.90
2010,07,25,10,15,21.90
2010,07,25,10,16,22.00
2010,07,25,10,17,22.10
2010,07,25,10,18,22.10
2010,07,25,10,19,22.20
2010,07,25,10,20,22.30
2010,07,25,10,21,22.30
2010,07,25,10,22,22.30
2010,07,25,10,23,22.40
2010,07,25,10,24,22.40
2010,07,25,10,25,22.50
2010,07,25,10,26,22.60
2010,07,25,10,27,22.60
2010,07,25,10,28,22.70
2010,07,25,10,29,22.70
2010,07,25,10,30,22.70
2010,07,25,10,31,22.70
2010,07,25,10,32,22.60
2010,07,25,10,33,22.60
2010,07,25,10,34,22.50
2010,07,25,10,35,22.50
2010,07,25,10,36,22.50
2010,07,25,10,37,22.50
2010,07,25,10,38,22.50
2010,07,25,10,39,22.60
2010,07,25,10,40,22.60
2010,07,25,10,41,22.50
2010,07,25,10,42,22.50
2010,07,25,10,43,22.50
2010,07,25,10,44,22.60
2010,07,25,10,45,22.50
2010,07,25,10,46,22.40
2010,07,25,10,47,22.40
2010,07,25,10,48,22.40
2010,07,25,10,49,22.40
2010,07,25,10,50,22.40
2010,07,25,10,51,22.40
2010,07,25,10,52,22.40
2010,07,25,10,53,22.40
2010,07,25,10,54,22.50
2010,07,25,10,55,22.50
2010,07,25,10,56,22.60
2010,07,25,10,57,22.70
2010,07,25,10,58,22.70
2010,07,25,10,59,22.70
2010,07,25,11,00,22.70
2010,07,25,11,01,22.80
2010,07,25,11,02,22.80
2010,07,25,11,03,22.80
2010,07,25,11,04,22.80
2010,07,25,11,05,22.90
2010,07,25,11,06,22.90
2010,07,25,11,07,22.90
2010,07,25,11,08,23.00
2010,07,25,11,09,23.10
2010,07,25,11,10,23.20
2010,07,25,11,11,23.20
2010,07,25,11,12,23.20
2010,07,25,11,13,23.10
2010,07,25,11,14,23.10
2010,07,25,11,15,23.00
2010,07,25,11,16,23.00
2010,07,25,11,17,23.10
2010,07,25,11,18,23.10
2010,07,25,11,19,23.20
2010,07,25,11,20,23.30
2010,07,25,11,21,23.40
2010,07,25,11,22,23.50
2010,07,25,11,23,23.60
2010,07,25,11,24,23.60
2010,07,25,11,25,23.70
2010,07,25,11,26,23.70
2010,07,25,11,27,23.70
2010,07,25,11,28,23.70
2010,07,25,11,29,23.70
2010,07,25,11,30,23.60
2010,07,25,11,31,23.50
2010,07,25,11,32,23.50
2010,07,25,11,33,23.50
2010,07,25,11,34,23.60
2010,07,25,11,35,23.70
2010,07,25,11,36,23.80
2010,07,25,11,37,23.90
2010,07,25,11,38,24.00
2010,07,25,11,39,24.00
2010,07,25,11,40,24.00
2010,07,25,11,41,24.10
2010,07,25,11,42,24.10
2010,07,25,11,43,24.10
2010,07,25,11,44,24.10
2010,07,25,11,45,24.10
2010,07,25,11,46,24.00
2010,07,25,11,47,24.00
2010,07,25,11,48,24.00
2010,07,25,11,49,24.00
2010,07,25,11,50,24.00
2010,07,25,11,51,24.00
2010,07,25,11,52,24.00
2010,07,25,11,53,24.00
2010,07,25,11,54,23.90
2010,07,25,11,55,23.90
2010,07,25,11,56,24.00
2010,07,25,11,57,24.00
2010,07,25,11,58,24.10
2010,07,25,11,59,24.10
2010,07,25,12,00,24.10
2010,07,25,12,01,24.10
2010,07,25,12,02,24.10
2010,07,25,12,03,24.10
2010,07,25,12,04,24.10
2010,07,25,12,05,24.20
2010,07,25,12,06,24.30
2010,07,25,12,07,24.40
2010,07,25,12,08,24.50
2010,07,25,12,09,24.60
2010,07,25,12,10,24.60
2010,07,25,12,11,24.60
2010,07,25,12,12,24.60
2010,07,25,12,13,24.60
2010,07,25,12,14,24.70
2010,07,25,12,15,24.70
2010,07,25,12,16,24.70
2010,07,25,12,17,24.70
2010,07,25,12,18,24.70
2010,07,25,12,19,24.60
2010,07,25,12,20,24.60
2010,07,25,12,21,24.60
2010,07,25,12,22,24.70
2010,07,25,12,23,24.80
2010,07,25,12,24,24.90
2010,07,25,12,25,25.00
2010,07,25,12,26,25.10
2010,07,25,12,27,25.20
2010,07,25,12,28,25.30
2010,07,25,12,29,25.40
2010,07,25,12,30,25.50
2010,07,25,12,31,25.50
2010,07,25,12,32,25.60
2010,07,25,12,33,25.60
2010,07,25,12,34,25.60
2010,07,25,12,35,25.60
2010,07,25,12,36,25.50
2010,07,25,12,37,25.50
2010,07,25,12,38,25.60
2010,07,25,12,39,25.70
2010,07,25,12,40,25.80
2010,07,25,12,41,25.80
2010,07,25,12,42,25.90
2010,07,25,12,43,25.90
2010,07,25,12,44,26.00
2010,07,25,12,45,26.10
2010,07,25,12,46,26.10
2010,07,25,12,47,26.10
2010,07,25,12,48,26.00
2010,07,25,12,49,25.90
2010,07,25,12,50,25.90
2010,07,25,12,51,26.00
2010,07,25,12,52,26.10
2010,07,25,12,53,26.10
2010,07,25,12,54,26.10
2010,07,25,12,55,26.10
2010,07,25,12,56,26.00
2010,07,25,12,57,26.00
2010,07,25,12,58,26.00
2010,07,25,12,59,26.00
2010,07,25,13,00,26.00
2010,07,25,13,01,26.10
2010,07,25,13,02,26.10
2010,07,25,13,03,26.20
2010,07,25,13,04,26.30
2010,07,25,13,05,26.50
2010,07,25,13,06,26.70
2010,07,25,13,07,26.70
2010,07,25,13,08,26.80
2010,07,25,13,09,26.60
2010,07,25,13,10,26.50
2010,07,25,13,11,26.30
2010,07,25,13,12,26.20
2010,07,25,13,13,26.10
2010,07,25,13,14,26.00
2010,07,25,13,15,26.00
2010,07,25,13,16,25.90
2010,07,25,13,17,25.90
2010,07,25,13,18,26.00
2010,07,25,13,19,26.00
2010,07,25,13,20,26.10
2010,07,25,13,21,26.10
2010,07,25,13,22,26.10
2010,07,25,13,23,26.20
2010,07,25,13,24,26.30
2010,07,25,13,25,26.40
2010,07,25,13,26,26.50
2010,07,25,13,27,26.60
2010,07,25,13,28,26.60
2010,07,25,13,29,26.70
2010,07,25,13,30,26.70
2010,07,25,13,31,26.70
2010,07,25,13,32,26.70
2010,07,25,13,33,26.60
2010,07,25,13,34,26.50
2010,07,25,13,35,26.40
2010,07,25,13,36,26.40
2010,07,25,13,37,26.30
2010,07,25,13,38,26.30
2010,07,25,13,39,26.30
2010,07,25,13,40,26.30
2010,07,25,13,41,26.30
2010,07,25,13,42,26.30
2010,07,25,13,43,26.30
2010,07,25,13,44,26.20
2010,07,25,13,45,26.10
2010,07,25,13,46,26.10
2010,07,25,13,47,26.10
2010,07,25,13,48,26.10
2010,07,25,13,49,26.20
2010,07,25,13,50,26.20
2010,07,25,13,51,26.20
2010,07,25,13,52,26.20
2010,07,25,13,53,26.20
2010,07,25,13,54,26.20
2010,07,25,13,55,26.20
2010,07,25,13,56,26.10
2010,07,25,13,57,26.10
2010,07,25,13,58,26.10
2010,07,25,13,59,26.10
2010,07,25,14,00,26.10
2010,07,25,14,01,26.20
2010,07,25,14,02,26.20
2010,07,25,14,03,26.20
2010,07,25,14,04,26.20
2010,07,25,14,05,26.20
2010,07,25,14,06,26.10
2010,07,25,14,07,26.10
2010,07,25,14,08,26.10
2010,07,25,14,09,26.20
2010,07,25,14,10,26.20
2010,07,25,14,11,26.30
2010,07,25,14,12,26.40
2010,07,25,14,13,26.40
2010,07,25,14,14,26.40
2010,07,25,14,15,26.40
2010,07,25,14,16,26.40
2010,07,25,14,17,26.40
2010,07,25,14,18,26.40
2010,07,25,14,19,26.50
2010,07,25,14,20,26.60
2010,07,25,14,21,26.60
2010,07,25,14,22,26.70
2010,07,25,14,23,26.70
2010,07,25,14,24,26.70
2010,07,25,14,25,26.70
2010,07,25,14,26,26.70
2010,07,25,14,27,26.70
2010,07,25,14,28,26.70
2010,07,25,14,29,26.70
2010,07,25,14,30,26.80
2010,07,25,14,31,26.90
2010,07,25,14,32,26.90
2010,07,25,14,33,26.90
2010,07,25,14,34,26.90
2010,07,25,14,35,26.90
2010,07,25,14,36,26.90
2010,07,25,14,37,26.90
2010,07,25,14,38,26.90
2010,07,25,14,39,26.90
2010,07,25,14,40,26.90
2010,07,25,14,41,26.90
2010,07,25,14,42,26.80
2010,07,25,14,43,26.80
2010,07,25,14,44,26.80
2010,07,25,14,45,26.80
2010,07,25,14,46,26.80
2010,07,25,14,47,26.90
2010,07,25,14,48,26.90
2010,07,25,14,49,27.00
2010,07,25,14,50,27.00
2010,07,25,14,51,27.10
2010,07,25,14,52,27.20
2010,07,25,14,53,27.30
2010,07,25,14,54,27.30
2010,07,25,14,55,27.40
2010,07,25,14,56,27.50
2010,07,25,14,57,27.60
2010,07,25,14,58,27.60
2010,07,25,14,59,27.70
2010,07,25,15,00,27.70
2010,07,25,15,01,27.60
2010,07,25,15,02,27.60
2010,07,25,15,03,27.60
2010,07,25,15,04,27.50
2010,07,25,15,05,27.50
2010,07,25,15,06,27.50
2010,07,25,15,07,27.40
2010,07,25,15,08,27.30
2010,07,25,15,09,27.30
2010,07,25,15,10,27.30
2010,07,25,15,11,27.30
2010,07,25,15,12,27.30
2010,07,25,15,13,27.30
2010,07,25,15,14,27.30
2010,07,25,15,15,27.40
2010,07,25,15,16,27.40
2010,07,25,15,17,27.50
2010,07,25,15,18,27.50
2010,07,25,15,19,27.40
2010,07,25,15,20,27.40
2010,07,25,15,21,27.40
2010,07,25,15,22,27.40
2010,07,25,15,23,27.50
2010,07,25,15,24,27.50
2010,07,25,15,25,27.50
2010,07,25,15,26,27.50
2010,07,25,15,27,27.50
2010,07,25,15,28,27.50
2010,07,25,15,29,27.40
2010,07,25,15,30,27.30
2010,07,25,15,31,27.30
2010,07,25,15,32,27.30
2010,07,25,15,33,27.20
2010,07,25,15,34,27.10
2010,07,25,15,35,27.10
2010,07,25,15,36,27.10
2010,07,25,15,37,27.10
2010,07,25,15,38,27.10
2010,07,25,15,39,27.20
2010,07,25,15,40,27.20
2010,07,25,15,41,27.30
2010,07,25,15,42,27.30
2010,07,25,15,43,27.40
2010,07,25,15,44,27.50
2010,07,25,15,45,27.50
2010,07,25,15,46,27.50
2010,07,25,15,47,27.50
2010,07,25,15,48,27.50
2010,07,25,15,49,27.60
2010,07,25,15,50,27.60
2010,07,25,15,51,27.60
2010,07,25,15,52,27.50
2010,07,25,15,53,27.50
2010,07,25,15,54,27.50
2010,07,25,15,55,27.50
2010,07,25,15,56,27.50
2010,07,25,15,57,27.40
2010,07,25,15,58,27.30
2010,07,25,15,59,27.30
2010,07,25,16,00,27.30
2010,07,25,16,01,27.30
2010,07,25,16,02,27.20
2010,07,25,16,03,27.10
2010,07,25,16,04,27.10
2010,07,25,16,05,27.10
2010,07,25,16,06,27.20
2010,07,25,16,07,27.30
2010,07,25,16,08,27.40
2010,07,25,16,09,27.40
2010,07,25,16,10,27.40
2010,07,25,16,11,27.50
2010,07,25,16,12,27.50
2010,07,25,16,13,27.40
2010,07,25,16,14,27.40
2010,07,25,16,15,27.30
2010,07,25,16,16,27.30
2010,07,25,16,17,27.30
2010,07,25,16,18,27.30
2010,07,25,16,19,27.40
2010,07,25,16,20,27.40
2010,07,25,16,21,27.40
2010,07,25,16,22,27.40
2010,07,25,16,23,27.50
2010,07,25,16,24,27.60
2010,07,25,16,25,27.60
2010,07,25,16,26,27.50
2010,07,25,16,27,27.60
2010,07,25,16,28,27.60
2010,07,25,16,29,27.70
2010,07,25,16,30,27.80
2010,07,25,16,31,27.90
2010,07,25,16,32,27.90
2010,07,25,16,33,28.00
2010,07,25,16,34,28.10
2010,07,25,16,35,28.10
2010,07,25,16,36,28.10
2010,07,25,16,37,28.10
2010,07,25,16,38,28.10
2010,07,25,16,39,28.10
2010,07,25,16,40,28.10
2010,07,25,16,41,28.10
2010,07,25,16,42,28.10
2010,07,25,16,43,28.10
2010,07,25,16,44,28.00
2010,07,25,16,45,28.00
2010,07,25,16,46,27.90
2010,07,25,16,47,27.90
2010,07,25,16,48,27.90
2010,07,25,16,49,27.80
2010,07,25,16,50,27.80
2010,07,25,16,51,27.90
2010,07,25,16,52,27.90
2010,07,25,16,53,27.80
2010,07,25,16,54,27.80
2010,07,25,16,55,27.80
2010,07,25,16,56,27.90
2010,07,25,16,57,28.00
2010,07,25,16,58,27.90
2010,07,25,16,59,28.00
2010,07,25,17,00,28.00
2010,07,25,17,01,28.00
2010,07,25,17,02,28.00
2010,07,25,17,03,28.10
2010,07,25,17,04,28.10
2010,07,25,17,05,28.10
2010,07,25,17,06,28.20
2010,07,25,17,07,28.20
2010,07,25,17,08,28.20
2010,07,25,17,09,28.20
2010,07,25,17,10,28.20
2010,07,25,17,11,28.20
2010,07,25,17,12,28.20
2010,07,25,17,13,28.20
2010,07,25,17,14,28.20
2010,07,25,17,15,28.20
2010,07,25,17,16,28.20
2010,07,25,17,17,28.20
2010,07,25,17,18,28.20
2010,07,25,17,19,28.10
2010,07,25,17,20,28.10
2010,07,25,17,21,28.10
2010,07,25,17,22,28.10